QPF
0.02 0.02 0.02 0.02 0.02 0.03 0.05 0.06 0.05 0.04 0.03 0.01 0.00 0.00 0.00 0.00 0.01 0.01 0.01 0.00 0.00 0.01 0.01 0.01 0.01 0.01 0.02 0.02 0.02 0.01 0.01 0.01 0.00 0.00 0.00 0.00 0.00 0.00 0.00 0.00 0.00 0.00 0.01
0.02 0.02 0.02 0.03 0.04 0.04 0.05 0.05 0.03 0.02 0.01 0.01 0.00 0.00 0.00 0.00 0.01 0.01 0.00 0.00 0.00 0.00 0.01 0.01 0.01 0.01 0.01 0.01 0.01 0.01 0.01 0.01 0.00 0.00 0.00 0.00 0.00 0.00 0.00 0.00 0.00 0.00 0.00
0.02 0.02 0.03 0.04 0.04 0.04 0.04 0.03 0.02 0.01 0.00 0.00 0.00 0.00 0.00 0.00 0.00 0.01 0.00 0.00 0.00 0.01 0.01 0.01 0.01 0.00 0.00 0.01 0.01 0.01 0.02 0.02 0.01 0.00 0.00 0.00 0.00 0.00 0.00 0.00 0.00 0.00 0.00
0.01 0.02 0.03 0.03 0.02 0.02 0.02 0.02 0.01 0.00 0.01 0.01 0.01 0.00 0.00 0.01 0.00 0.00 0.00 0.00 0.01 0.01 0.02 0.01 0.01 0.01 0.01 0.01 0.01 0.02 0.02 0.02 0.02 0.01 0.01 0.00 0.00 0.00 0.00 0.00 0.00 0.00 0.00
0.02 0.02 0.01 0.02 0.02 0.01 0.01 0.01 0.01 0.01 0.01 0.01 0.01 0.00 0.00 0.00 0.00 0.00 0.00 0.00 0.00 0.00 0.01 0.01 0.01 0.01 0.01 0.01 0.01 0.02 0.02 0.01 0.02 0.02 0.01 0.01 0.01 0.00 0.00 0.01 0.01 0.00 0.00
0.01 0.01 0.01 0.01 0.01 0.01 0.01 0.01 0.01 0.01 0.01 0.01 0.01 0.00 0.00 0.00 0.00 0.00 0.00 0.00 0.00 0.00 0.00 0.01 0.01 0.00 0.01 0.01 0.02 0.01 0.02 0.02 0.02 0.02 0.02 0.01 0.01 0.01 0.01 0.00 0.01 0.01 0.01
0.00 0.00 0.00 0.00 0.00 0.00 0.00 0.00 0.00 0.01 0.01 0.01 0.01 0.00 0.00 0.00 0.00 0.00 0.00 0.00 0.00 0.00 0.00 0.01 0.01 0.01 0.01 0.01 0.01 0.01 0.01 0.02 0.02 0.02 0.02 0.01 0.01 0.01 0.01 0.01 0.01 0.01 0.01
0.00 0.00 0.00 0.00 0.00 0.00 0.00 0.00 0.01 0.01 0.01 0.01 0.01 0.01 0.01 0.01 0.01 0.01 0.01 0.01 0.01 0.01 0.01 0.01 0.01 0.01 0.01 0.01 0.01 0.01 0.01 0.02 0.02 0.02 0.02 0.02 0.01 0.01 0.02 0.02 0.02 0.02 0.01
0.00 0.00 0.00 0.00 0.00 0.00 0.00 0.00 0.01 0.01 0.01 0.02 0.02 0.02 0.02 0.01 0.02 0.02 0.02 0.01 0.01 0.01 0.01 0.02 0.02 0.02 0.03 0.03 0.02 0.01 0.01 0.01 0.03 0.03 0.03 0.02 0.02 0.03 0.04 0.03 0.02 0.02 0.01
0.00 0.00 0.00 0.00 0.01 0.01 0.01 0.01 0.02 0.03 0.04 0.04 0.03 0.02 0.02 0.02 0.02 0.02 0.03 0.02 0.01 0.01 0.02 0.02 0.02 0.02 0.02 0.03 0.02 0.01 0.01 0.01 0.03 0.03 0.02 0.02 0.02 0.02 0.03 0.03 0.02 0.02 0.01
0.00 0.01 0.01 0.01 0.01 0.01 0.02 0.03 0.05 0.06 0.06 0.06 0.05 0.04 0.04 0.03 0.02 0.02 0.03 0.03 0.02 0.02 0.01 0.01 0.01 0.02 0.02 0.02 0.02 0.01 0.01 0.02 0.02 0.02 0.02 0.01 0.01 0.01 0.02 0.03 0.03 0.02 0.02
0.01 0.01 0.01 0.01 0.01 0.01 0.01 0.02 0.03 0.05 0.06 0.08 0.09 0.08 0.07 0.05 0.03 0.02 0.02 0.02 0.02 0.02 0.01 0.01 0.01 0.01 0.01 0.01 0.01 0.01 0.01 0.02 0.02 0.02 0.02 0.02 0.01 0.01 0.02 0.02 0.03 0.02 0.02
0.01 0.00 0.01 0.01 0.01 0.01 0.01 0.02 0.03 0.04 0.04 0.04 0.06 0.06 0.04 0.03 0.02 0.02 0.02 0.02 0.02 0.02 0.02 0.01 0.01 0.01 0.01 0.01 0.02 0.02 0.01 0.01 0.01 0.02 0.02 0.01 0.02 0.02 0.02 0.03 0.03 0.03 0.03
0.01 0.00 0.00 0.01 0.01 0.02 0.02 0.03 0.03 0.04 0.05 0.06 0.06 0.03 0.02 0.03 0.04 0.03 0.03 0.03 0.03 0.02 0.02 0.02 0.01 0.01 0.01 0.01 0.01 0.01 0.01 0.01 0.01 0.01 0.01 0.01 0.02 0.02 0.02 0.02 0.02 0.03 0.03
0.01 0.01 0.01 0.01 0.02 0.02 0.04 0.05 0.06 0.06 0.06 0.06 0.06 0.05 0.05 0.04 0.04 0.04 0.03 0.03 0.02 0.02 0.02 0.02 0.01 0.01 0.01 0.01 0.01 0.01 0.01 0.01 0.01 0.01 0.01 0.01 0.02 0.02 0.02 0.02 0.02 0.02 0.03
0.02 0.02 0.02 0.03 0.03 0.04 0.05 0.06 0.06 0.05 0.06 0.06 0.06 0.07 0.06 0.05 0.04 0.04 0.04 0.03 0.03 0.04 0.03 0.01 0.01 0.02 0.02 0.01 0.01 0.01 0.01 0.01 0.02 0.02 0.02 0.01 0.02 0.02 0.02 0.02 0.02 0.02 0.03
0.03 0.02 0.03 0.04 0.05 0.05 0.06 0.06 0.07 0.07 0.07 0.06 0.05 0.04 0.05 0.05 0.06 0.05 0.04 0.04 0.04 0.04 0.03 0.01 0.01 0.01 0.02 0.02 0.03 0.03 0.03 0.02 0.02 0.02 0.02 0.02 0.02 0.02 0.02 0.02 0.02 0.02 0.02
0.03 0.02 0.03 0.04 0.05 0.06 0.07 0.06 0.06 0.07 0.07 0.06 0.04 0.03 0.03 0.03 0.04 0.05 0.05 0.04 0.03 0.02 0.02 0.01 0.01 0.01 0.02 0.04 0.05 0.06 0.04 0.04 0.03 0.03 0.03 0.03 0.03 0.03 0.03 0.02 0.03 0.03 0.03
0.02 0.02 0.02 0.02 0.03 0.03 0.04 0.03 0.02 0.03 0.04 0.05 0.04 0.03 0.03 0.03 0.03 0.03 0.03 0.02 0.02 0.01 0.02 0.02 0.03 0.04 0.04 0.05 0.06 0.08 0.07 0.07 0.05 0.04 0.04 0.04 0.04 0.04 0.04 0.04 0.05 0.06 0.05
0.01 0.01 0.01 0.01 0.01 0.01 0.02 0.01 0.01 0.01 0.01 0.02 0.02 0.02 0.02 0.02 0.01 0.01 0.01 0.01 0.01 0.01 0.02 0.03 0.03 0.03 0.04 0.05 0.06 0.07 0.08 0.09 0.08 0.06 0.05 0.06 0.06 0.06 0.06 0.06 0.07 0.07 0.07
0.01 0.01 0.02 0.01 0.01 0.01 0.01 0.01 0.01 0.01 0.01 0.01 0.01 0.01 0.01 0.01 0.01 0.01 0.01 0.01 0.01 0.01 0.02 0.02 0.02 0.02 0.02 0.03 0.04 0.05 0.06 0.08 0.09 0.09 0.08 0.07 0.08 0.08 0.08 0.08 0.08 0.07 0.07
0.01 0.01 0.01 0.01 0.01 0.01 0.01 0.00 0.00 0.00 0.00 0.01 0.01 0.01 0.01 0.01 0.01 0.01 0.01 0.01 0.01 0.02 0.02 0.03 0.03 0.02 0.02 0.03 0.03 0.04 0.05 0.07 0.08 0.08 0.08 0.08 0.09 0.09 0.09 0.09 0.07 0.06 0.06
0.01 0.01 0.01 0.02 0.02 0.02 0.01 0.01 0.01 0.01 0.01 0.01 0.01 0.01 0.01 0.01 0.01 0.01 0.02 0.02 0.02 0.02 0.02 0.02 0.02 0.02 0.03 0.03 0.03 0.04 0.05 0.05 0.07 0.08 0.08 0.08 0.08 0.08 0.07 0.07 0.05 0.05 0.05
0.02 0.02 0.02 0.02 0.04 0.04 0.04 0.03 0.03 0.03 0.03 0.02 0.02 0.02 0.02 0.02 0.03 0.03 0.03 0.03 0.03 0.03 0.03 0.02 0.02 0.03 0.04 0.05 0.05 0.04 0.04 0.05 0.06 0.07 0.07 0.08 0.07 0.07 0.07 0.05 0.04 0.04 0.06
0.03 0.03 0.04 0.04 0.05 0.06 0.06 0.07 0.06 0.05 0.05 0.05 0.05 0.05 0.04 0.05 0.05 0.05 0.04 0.04 0.04 0.03 0.03 0.02 0.02 0.03 0.04 0.05 0.06 0.05 0.05 0.06 0.06 0.06 0.07 0.08 0.08 0.07 0.06 0.05 0.05 0.06 0.06
0.04 0.05 0.06 0.05 0.05 0.04 0.03 0.05 0.05 0.04 0.04 0.04 0.04 0.06 0.06 0.07 0.07 0.06 0.05 0.04 0.04 0.03 0.03 0.02 0.02 0.03 0.04 0.05 0.06 0.06 0.06 0.05 0.06 0.07 0.08 0.09 0.09 0.08 0.09 0.09 0.09 0.09 0.08
MSLP
1013.55 1013.99 1014.40 1014.75 1014.99 1015.12 1015.17 1015.16 1015.14 1015.15 1015.23 1015.37 1015.58 1015.82 1016.05 1016.24 1016.37 1016.42 1016.40 1016.34 1016.26 1016.20 1016.17 1016.19 1016.25 1016.34 1016.44 1016.53 1016.59 1016.61 1016.61 1016.59 1016.57 1016.57 1016.59 1016.66 1016.77 1016.91 1017.08 1017.27 1017.48 1017.70 1017.93
1013.17 1013.63 1014.06 1014.43 1014.69 1014.84 1014.90 1014.90 1014.89 1014.90 1014.97 1015.11 1015.31 1015.54 1015.76 1015.95 1016.08 1016.12 1016.10 1016.02 1015.91 1015.81 1015.73 1015.70 1015.71 1015.76 1015.83 1015.92 1016.01 1016.09 1016.16 1016.23 1016.31 1016.40 1016.52 1016.66 1016.82 1017.01 1017.21 1017.41 1017.62 1017.83 1018.05
1012.74 1013.22 1013.66 1014.04 1014.31 1014.47 1014.54 1014.55 1014.54 1014.55 1014.61 1014.74 1014.93 1015.15 1015.37 1015.56 1015.68 1015.73 1015.71 1015.63 1015.51 1015.38 1015.27 1015.19 1015.15 1015.16 1015.21 1015.28 1015.38 1015.49 1015.61 1015.75 1015.90 1016.06 1016.25 1016.46 1016.67 1016.90 1017.12 1017.35 1017.56 1017.78 1017.99
1012.25 1012.73 1013.18 1013.55 1013.82 1013.97 1014.04 1014.05 1014.03 1014.04 1014.09 1014.21 1014.38 1014.59 1014.80 1014.98 1015.11 1015.17 1015.16 1015.09 1014.97 1014.83 1014.70 1014.59 1014.51 1014.48 1014.50 1014.55 1014.63 1014.75 1014.89 1015.05 1015.24 1015.46 1015.69 1015.94 1016.20 1016.46 1016.72 1016.97 1017.21 1017.44 1017.67
1011.73 1012.19 1012.62 1012.96 1013.20 1013.34 1013.39 1013.39 1013.36 1013.35 1013.39 1013.49 1013.64 1013.82 1014.02 1014.20 1014.32 1014.39 1014.39 1014.33 1014.22 1014.09 1013.95 1013.82 1013.72 1013.66 1013.64 1013.65 1013.71 1013.81 1013.94 1014.11 1014.31 1014.54 1014.80 1015.08 1015.37 1015.66 1015.95 1016.24 1016.52 1016.79 1017.06
1011.23 1011.64 1012.02 1012.32 1012.52 1012.62 1012.64 1012.61 1012.57 1012.54 1012.55 1012.62 1012.74 1012.89 1013.05 1013.21 1013.32 1013.39 1013.39 1013.34 1013.25 1013.12 1012.99 1012.85 1012.74 1012.65 1012.60 1012.59 1012.61 1012.67 1012.78 1012.93 1013.12 1013.35 1013.61 1013.90 1014.21 1014.54 1014.87 1015.21 1015.54 1015.88 1016.22
1010.79 1011.15 1011.46 1011.70 1011.85 1011.90 1011.89 1011.83 1011.76 1011.70 1011.68 1011.70 1011.77 1011.87 1011.98 1012.09 1012.17 1012.21 1012.21 1012.16 1012.08 1011.97 1011.84 1011.71 1011.60 1011.50 1011.42 1011.38 1011.37 1011.40 1011.48 1011.60 1011.77 1011.99 1012.25 1012.55 1012.88 1013.23 1013.60 1013.99 1014.39 1014.80 1015.22
1010.50 1010.79 1011.02 1011.20 1011.29 1011.30 1011.25 1011.16 1011.06 1010.97 1010.90 1010.86 1010.87 1010.89 1010.93 1010.97 1010.99 1010.99 1010.96 1010.89 1010.81 1010.71 1010.59 1010.47 1010.36 1010.26 1010.18 1010.12 1010.09 1010.10 1010.15 1010.26 1010.41 1010.62 1010.88 1011.18 1011.53 1011.91 1012.31 1012.75 1013.20 1013.68 1014.18
1010.39 1010.60 1010.77 1010.87 1010.91 1010.89 1010.81 1010.70 1010.57 1010.44 1010.32 1010.22 1010.14 1010.08 1010.02 1009.96 1009.90 1009.84 1009.75 1009.67 1009.56 1009.46 1009.35 1009.25 1009.14 1009.05 1008.96 1008.90 1008.87 1008.87 1008.92 1009.02 1009.17 1009.38 1009.65 1009.96 1010.32 1010.72 1011.15 1011.62 1012.11 1012.63 1013.17
1010.43 1010.58 1010.68 1010.74 1010.75 1010.70 1010.61 1010.48 1010.33 1010.16 1009.99 1009.82 1009.65 1009.48 1009.31 1009.15 1009.00 1008.85 1008.70 1008.57 1008.45 1008.33 1008.22 1008.12 1008.02 1007.93 1007.85 1007.79 1007.76 1007.77 1007.83 1007.94 1008.10 1008.33 1008.62 1008.95 1009.33 1009.74 1010.18 1010.65 1011.16 1011.68 1012.24
1010.56 1010.65 1010.72 1010.74 1010.73 1010.68 1010.58 1010.45 1010.28 1010.08 1009.86 1009.62 1009.36 1009.09 1008.81 1008.55 1008.29 1008.05 1007.84 1007.66 1007.50 1007.36 1007.23 1007.12 1007.02 1006.93 1006.85 1006.79 1006.77 1006.79 1006.86 1006.99 1007.18 1007.44 1007.75 1008.11 1008.51 1008.93 1009.37 1009.84 1010.32 1010.82 1011.35
1010.67 1010.72 1010.75 1010.76 1010.74 1010.70 1010.61 1010.48 1010.31 1010.09 1009.82 1009.51 1009.17 1008.81 1008.44 1008.07 1007.73 1007.41 1007.13 1006.89 1006.69 1006.52 1006.37 1006.24 1006.11 1006.00 1005.90 1005.83 1005.80 1005.82 1005.91 1006.07 1006.29 1006.59 1006.94 1007.33 1007.75 1008.18 1008.62 1009.06 1009.50 1009.95 1010.42
1010.64 1010.65 1010.66 1010.66 1010.65 1010.62 1010.55 1010.43 1010.25 1010.01 1009.71 1009.36 1008.95 1008.51 1008.06 1007.62 1007.21 1006.83 1006.50 1006.21 1005.97 1005.75 1005.56 1005.39 1005.22 1005.06 1004.92 1004.82 1004.76 1004.77 1004.85 1005.02 1005.28 1005.61 1006.00 1006.42 1006.87 1007.32 1007.76 1008.18 1008.58 1008.98 1009.39
1010.35 1010.33 1010.33 1010.33 1010.33 1010.32 1010.26 1010.15 1009.98 1009.73 1009.41 1009.01 1008.56 1008.08 1007.58 1007.09 1006.63 1006.21 1005.84 1005.52 1005.24 1004.98 1004.74 1004.50 1004.26 1004.04 1003.83 1003.66 1003.54 1003.51 1003.58 1003.74 1004.01 1004.36 1004.79 1005.26 1005.74 1006.21 1006.66 1007.08 1007.46 1007.83 1008.19
1009.77 1009.73 1009.72 1009.72 1009.74 1009.73 1009.69 1009.60 1009.43 1009.18 1008.84 1008.43 1007.95 1007.44 1006.92 1006.42 1005.94 1005.51 1005.12 1004.78 1004.46 1004.16 1003.86 1003.55 1003.23 1002.91 1002.60 1002.34 1002.15 1002.05 1002.06 1002.19 1002.45 1002.81 1003.26 1003.75 1004.27 1004.78 1005.26 1005.70 1006.09 1006.46 1006.81
1008.95 1008.88 1008.87 1008.88 1008.90 1008.91 1008.89 1008.80 1008.64 1008.39 1008.05 1007.63 1007.16 1006.65 1006.14 1005.64 1005.17 1004.75 1004.36 1004.01 1003.67 1003.33 1002.97 1002.59 1002.17 1001.75 1001.34 1000.96 1000.66 1000.47 1000.40 1000.47 1000.68 1001.02 1001.46 1001.97 1002.51 1003.06 1003.58 1004.05 1004.49 1004.89 1005.27
1008.01 1007.94 1007.92 1007.94 1007.98 1008.00 1007.99 1007.91 1007.76 1007.51 1007.18 1006.78 1006.32 1005.84 1005.35 1004.88 1004.44 1004.04 1003.68 1003.33 1002.98 1002.61 1002.20 1001.74 1001.24 1000.72 1000.19 999.70 999.28 998.97 998.80 998.78 998.91 999.18 999.58 1000.07 1000.61 1001.16 1001.71 1002.24 1002.73 1003.20 1003.65
1007.16 1007.08 1007.07 1007.10 1007.15 1007.19 1007.19 1007.13 1006.98 1006.76 1006.45 1006.07 1005.64 1005.19 1004.74 1004.31 1003.91 1003.55 1003.21 1002.88 1002.53 1002.14 1001.69 1001.18 1000.62 1000.01 999.38 998.78 998.24 997.81 997.51 997.36 997.37 997.54 997.84 998.26 998.74 999.28 999.83 1000.38 1000.92 1001.46 1002.00
1006.56 1006.50 1006.50 1006.55 1006.62 1006.67 1006.69 1006.65 1006.53 1006.32 1006.04 1005.69 1005.30 1004.88 1004.48 1004.10 1003.74 1003.42 1003.11 1002.79 1002.45 1002.06 1001.60 1001.06 1000.44 999.77 999.07 998.38 997.74 997.18 996.74 996.44 996.30 996.31 996.46 996.74 997.11 997.55 998.05 998.58 999.14 999.73 1000.35
1006.39 1006.34 1006.36 1006.43 1006.52 1006.60 1006.64 1006.62 1006.52 1006.34 1006.08 1005.77 1005.41 1005.04 1004.68 1004.34 1004.02 1003.72 1003.44 1003.15 1002.82 1002.43 1001.97 1001.42 1000.80 1000.10 999.35 998.59 997.86 997.18 996.60 996.14 995.81 995.62 995.56 995.64 995.82 996.10 996.47 996.92 997.43 998.02 998.68
1006.71 1006.68 1006.72 1006.81 1006.92 1007.02 1007.08 1007.08 1007.00 1006.85 1006.62 1006.34 1006.02 1005.68 1005.34 1005.03 1004.73 1004.46 1004.19 1003.91 1003.59 1003.22 1002.77 1002.24 1001.62 1000.92 1000.16 999.36 998.56 997.79 997.08 996.44 995.90 995.48 995.17 994.99 994.92 994.97 995.14 995.42 995.82 996.34 996.98
1007.50 1007.49 1007.55 1007.65 1007.77 1007.88 1007.95 1007.96 1007.90 1007.77 1007.57 1007.31 1007.00 1006.69 1006.37 1006.06 1005.77 1005.50 1005.23 1004.95 1004.64 1004.28 1003.85 1003.34 1002.75 1002.07 1001.32 1000.51 999.68 998.83 998.00 997.20 996.46 995.79 995.20 994.73 994.36 994.12 994.02 994.08 994.29 994.67 995.23
1008.69 1008.69 1008.74 1008.84 1008.96 1009.06 1009.13 1009.14 1009.08 1008.95 1008.76 1008.50 1008.21 1007.89 1007.57 1007.25 1006.95 1006.66 1006.37 1006.07 1005.76 1005.40 1004.98 1004.49 1003.93 1003.29 1002.57 1001.78 1000.93 1000.03 999.11 998.18 997.26 996.36 995.51 994.74 994.06 993.51 993.11 992.88 992.86 993.04 993.44
1010.12 1010.10 1010.14 1010.21 1010.30 1010.38 1010.42 1010.40 1010.33 1010.19 1009.98 1009.72 1009.42 1009.09 1008.75 1008.40 1008.06 1007.73 1007.41 1007.07 1006.73 1006.35 1005.93 1005.46 1004.93 1004.32 1003.64 1002.88 1002.04 1001.13 1000.16 999.13 998.07 996.99 995.92 994.89 993.93 993.08 992.38 991.86 991.56 991.50 991.70
1011.61 1011.57 1011.57 1011.60 1011.64 1011.66 1011.65 1011.60 1011.48 1011.31 1011.08 1010.80 1010.47 1010.11 1009.73 1009.35 1008.96 1008.57 1008.19 1007.80 1007.40 1006.99 1006.55 1006.08 1005.56 1004.98 1004.34 1003.62 1002.81 1001.92 1000.94 999.88 998.74 997.55 996.32 995.10 993.91 992.82 991.86 991.07 990.50 990.18 990.14
1013.03 1012.95 1012.90 1012.87 1012.84 1012.79 1012.71 1012.60 1012.43 1012.21 1011.94 1011.62 1011.26 1010.87 1010.45 1010.02 1009.57 1009.12 1008.66 1008.20 1007.74 1007.28 1006.80 1006.30 1005.77 1005.21 1004.60 1003.92 1003.17 1002.32 1001.38 1000.33 999.19 997.96 996.67 995.34 994.02 992.76 991.60 990.59 989.79 989.22 988.93
Thickness
5789 5786 5784 5781 5779 5776 5774 5771 5769 5767 5765 5763 5761 5759 5757 5755 5754 5752 5750 5748 5746 5744 5742 5740 5737 5736 5733 5731 5729 5726 5723 5720 5716 5717 5716 5716 5714 5712 5710 5708 5705 5703 5701
5790 5786 5783 5781 5779 5776 5773 5771 5769 5767 5765 5763 5760 5758 5756 5754 5752 5750 5748 5746 5744 5742 5739 5737 5735 5734 5731 5729 5727 5724 5721 5719 5716 5713 5713 5712 5710 5708 5706 5703 5702 5699 5697
5789 5785 5782 5779 5777 5775 5773 5771 5768 5766 5764 5761 5759 5756 5754 5752 5750 5748 5746 5744 5742 5739 5737 5735 5733 5731 5728 5726 5724 5721 5719 5718 5714 5711 5710 5708 5706 5704 5701 5700 5698 5696 5694
5789 5784 5781 5778 5776 5774 5772 5770 5767 5765 5762 5759 5757 5755 5752 5750 5748 5746 5744 5741 5739 5737 5735 5733 5731 5729 5727 5724 5722 5719 5716 5713 5711 5707 5705 5704 5701 5699 5696 5694 5693 5692 5690
5787 5783 5780 5778 5776 5774 5770 5768 5766 5763 5761 5758 5755 5753 5751 5749 5747 5744 5741 5739 5736 5734 5733 5731 5730 5728 5726 5723 5720 5717 5713 5710 5706 5703 5701 5699 5697 5694 5692 5690 5688 5688 5687
5785 5782 5780 5776 5773 5771 5768 5765 5763 5760 5758 5755 5753 5750 5748 5747 5745 5742 5739 5736 5733 5731 5729 5728 5727 5725 5723 5720 5717 5714 5711 5707 5703 5699 5697 5695 5694 5692 5689 5686 5683 5680 5680
5782 5780 5777 5774 5771 5768 5766 5762 5759 5757 5755 5752 5750 5747 5745 5744 5742 5740 5737 5733 5731 5728 5726 5724 5723 5722 5719 5716 5713 5711 5708 5705 5702 5699 5695 5693 5691 5690 5686 5682 5679 5677 5676
5778 5776 5774 5771 5768 5765 5761 5759 5756 5754 5751 5748 5746 5744 5742 5741 5738 5736 5733 5730 5727 5725 5723 5721 5719 5717 5715 5712 5709 5706 5703 5701 5699 5696 5693 5692 5690 5687 5683 5680 5676 5673 5672
5774 5772 5771 5768 5765 5761 5758 5755 5753 5750 5747 5745 5742 5739 5737 5736 5734 5732 5728 5725 5723 5722 5721 5718 5715 5712 5710 5706 5702 5700 5698 5696 5695 5692 5690 5688 5686 5682 5678 5673 5670 5667 5666
5771 5769 5767 5764 5761 5758 5755 5752 5750 5746 5743 5741 5737 5735 5733 5732 5730 5727 5723 5721 5719 5718 5715 5713 5710 5707 5704 5700 5697 5694 5691 5691 5688 5687 5684 5682 5680 5678 5674 5669 5667 5662 5660
5767 5765 5762 5759 5756 5754 5751 5748 5745 5741 5738 5735 5733 5730 5728 5727 5726 5723 5719 5716 5714 5712 5709 5707 5706 5701 5698 5695 5692 5689 5687 5684 5682 5680 5678 5676 5675 5673 5670 5666 5662 5659 5656
5761 5758 5756 5754 5752 5750 5745 5742 5739 5735 5731 5729 5727 5725 5724 5723 5721 5719 5716 5712 5709 5706 5704 5703 5700 5696 5692 5689 5686 5684 5681 5677 5674 5672 5671 5670 5668 5667 5664 5661 5658 5655 5653
5754 5752 5750 5748 5746 5744 5740 5737 5733 5729 5726 5723 5721 5719 5718 5717 5715 5713 5710 5707 5703 5700 5700 5698 5694 5690 5687 5684 5681 5677 5673 5670 5667 5665 5664 5663 5662 5660 5657 5655 5652 5649 5647
5748 5745 5744 5741 5738 5736 5734 5731 5727 5723 5720 5718 5715 5714 5712 5710 5709 5707 5704 5700 5697 5693 5692 5690 5687 5684 5680 5678 5674 5671 5667 5664 5661 5659 5658 5656 5655 5652 5649 5647 5644 5642 5639
5742 5739 5737 5734 5731 5728 5725 5723 5721 5719 5717 5714 5712 5709 5706 5705 5704 5700 5696 5694 5691 5687 5683 5681 5679 5677 5674 5671 5668 5665 5661 5657 5654 5652 5650 5648 5646 5644 5642 5639 5635 5633 5631
5735 5732 5730 5727 5724 5721 5718 5715 5713 5712 5710 5708 5706 5703 5702 5699 5696 5692 5689 5686 5683 5679 5674 5673 5672 5669 5667 5665 5661 5658 5654 5651 5648 5645 5643 5640 5638 5635 5633 5630 5627 5625 5624
5728 5726 5724 5721 5718 5714 5711 5708 5705 5703 5701 5699 5697 5695 5693 5691 5687 5684 5680 5677 5673 5669 5667 5667 5665 5662 5660 5658 5654 5651 5648 5645 5641 5637 5635 5632 5630 5627 5624 5622 5619 5617 5615
5720 5718 5716 5713 5711 5708 5704 5701 5697 5695 5692 5691 5689 5686 5684 5681 5678 5675 5672 5667 5664 5661 5660 5659 5658 5656 5653 5650 5647 5644 5641 5637 5633 5630 5628 5625 5622 5620 5617 5614 5611 5609 5608
5711 5709 5707 5704 5702 5699 5696 5692 5689 5686 5684 5682 5680 5678 5675 5672 5669 5665 5661 5659 5657 5655 5653 5651 5649 5648 5645 5642 5639 5636 5632 5629 5626 5623 5621 5618 5615 5612 5609 5607 5604 5601 5599
5701 5700 5697 5694 5691 5689 5686 5683 5680 5678 5676 5673 5671 5669 5666 5662 5660 5656 5652 5650 5648 5646 5644 5642 5640 5638 5636 5633 5630 5626 5623 5620 5617 5615 5613 5609 5606 5603 5601 5599 5596 5594 5593
5691 5690 5687 5685 5682 5679 5677 5674 5672 5669 5667 5665 5662 5660 5655 5653 5650 5647 5644 5641 5638 5636 5634 5632 5630 5628 5625 5623 5620 5617 5614 5611 5609 5606 5604 5600 5597 5595 5593 5591 5589 5586 5584
5681 5680 5677 5674 5672 5669 5667 5665 5662 5660 5658 5655 5653 5650 5645 5642 5640 5637 5635 5633 5630 5628 5625 5622 5620 5618 5616 5613 5610 5607 5604 5601 5598 5596 5594 5591 5588 5586 5583 5581 5580 5578 5576
5670 5669 5666 5664 5662 5659 5657 5655 5652 5650 5648 5646 5643 5639 5636 5632 5630 5627 5625 5623 5621 5618 5616 5613 5610 5608 5606 5603 5600 5596 5593 5591 5588 5585 5583 5581 5579 5577 5574 5573 5572 5570 5568
5661 5658 5655 5654 5652 5650 5648 5645 5643 5641 5639 5636 5633 5629 5626 5622 5620 5617 5615 5613 5610 5608 5606 5603 5601 5599 5596 5593 5590 5587 5584 5581 5578 5575 5573 5571 5570 5569 5566 5564 5563 5561 5559
5651 5648 5646 5645 5643 5640 5638 5636 5634 5631 5628 5626 5622 5619 5616 5612 5609 5607 5604 5602 5600 5598 5596 5594 5591 5589 5586 5583 5580 5577 5574 5571 5568 5566 5564 5562 5561 5560 5558 5556 5554 5552 5549
5642 5640 5638 5635 5633 5631 5629 5626 5624 5621 5619 5616 5613 5610 5606 5603 5600 5597 5595 5592 5590 5589 5586 5584 5582 5579 5576 5573 5570 5567 5564 5561 5558 5556 5554 5552 5551 5549 5547 5546 5544 5542 5540